| time (UTC) | temp F | wind direction | speed knots | gust knots | rain 1hr in | rain 24hr in | rain mn in | humidity % | barometer mb |
| 20260906231017 | 98 | 44 | 4.3 | 7.8 | 0.00 | 0.00 | 0.00 | 40 | 1011.5 |
| 20260906230513 | 98 | 91 | 2.6 | 7.0 | 0.00 | 0.00 | 0.00 | 40 | 1011.5 |
| 20260906230023 | 99 | 130 | 1.7 | 6.1 | 0.00 | 0.00 | 0.00 | 40 | 1011.5 |
| 20260906225513 | 99 | 38 | 1.7 | 7.8 | 0.00 | 0.00 | 0.00 | 39 | 1011.5 |
| 20260906225004 | 99 | 119 | 1.7 | 7.8 | 0.00 | 0.00 | 0.00 | 39 | 1011.5 |
| 20260906224504 | 99 | 86 | 1.7 | 7.0 | 0.00 | 0.00 | 0.00 | 38 | 1011.5 |
| 20260906224007 | 99 | 37 | 3.5 | 7.0 | 0.00 | 0.00 | 0.00 | 39 | 1011.6 |
| 20260906223503 | 99 | 156 | 1.7 | 7.8 | 0.00 | 0.00 | 0.00 | 40 | 1011.6 |
| 20260906223007 | 99 | 86 | 2.6 | 7.8 | 0.00 | 0.00 | 0.00 | 39 | 1011.6 |
| 20260906222506 | 99 | 242 | 2.6 | 6.1 | 0.00 | 0.00 | 0.00 | 38 | 1011.6 |
| 20260906222009 | 99 | 123 | 0.9 | 6.1 | 0.00 | 0.00 | 0.00 | 38 | 1011.7 |
| 20260906221514 | 99 | 122 | 1.7 | 7.0 | 0.00 | 0.00 | 0.00 | 38 | 1011.7 |
| 20260906221008 | 99 | 137 | 1.7 | 7.0 | 0.00 | 0.00 | 0.00 | 39 | 1011.7 |
| 20260906220509 | 99 | 154 | 3.5 | 7.0 | 0.00 | 0.00 | 0.00 | 40 | 1011.6 |
| 20260906220025 | 100 | 102 | 3.5 | 6.1 | 0.00 | 0.00 | 0.00 | 40 | 1011.6 |
| 20260906215511 | 100 | 123 | 1.7 | 5.2 | 0.00 | 0.00 | 0.00 | 41 | 1011.6 |
| 20260906215011 | 99 | 87 | 0.9 | 3.5 | 0.00 | 0.00 | 0.00 | 41 | 1011.6 |
| 20260906214536 | 99 | 133 | 0.9 | 6.1 | 0.00 | 0.00 | 0.00 | 40 | 1011.6 |
| 20260906214003 | 99 | 51 | 0.9 | 8.7 | 0.00 | 0.00 | 0.00 | 40 | 1011.7 |
| 20260906213503 | 99 | 146 | 2.6 | 8.7 | 0.00 | 0.00 | 0.00 | 40 | 1011.8 |
| 20260906213013 | 99 | 118 | 2.6 | 9.6 | 0.00 | 0.00 | 0.00 | 39 | 1011.8 |
| 20260906212502 | 99 | 105 | 3.5 | 9.6 | 0.00 | 0.00 | 0.00 | 39 | 1011.9 |
| 20260906212006 | 100 | 137 | 2.6 | 6.1 | 0.00 | 0.00 | 0.00 | 39 | 1011.9 |
| 20260906211517 | 99 | 140 | 1.7 | 5.2 | 0.00 | 0.00 | 0.00 | 40 | 1011.9 |
| 20260906211011 | 99 | 244 | 1.7 | 7.8 | 0.00 | 0.00 | 0.00 | 40 | 1012.0 |
| 20260906210508 | 99 | 153 | 0.9 | 7.8 | 0.00 | 0.00 | 0.00 | 41 | 1012.2 |
| 20260906210020 | 99 | 110 | 1.7 | 7.0 | 0.00 | 0.00 | 0.00 | 42 | 1012.3 |
| 20260906205508 | 99 | 83 | 1.7 | 4.3 | 0.00 | 0.00 | 0.00 | 40 | 1012.3 |
| 20260906205010 | 99 | 277 | 1.7 | 7.8 | 0.00 | 0.00 | 0.00 | 41 | 1012.4 |
| 20260906204529 | 99 | 85 | 1.7 | 7.8 | 0.00 | 0.00 | 0.00 | 40 | 1012.5 |
| 20260906204010 | 100 | 150 | 2.6 | 7.0 | 0.00 | 0.00 | 0.00 | 41 | 1012.6 |
| 20260906203512 | 99 | 132 | 2.6 | 7.0 | 0.00 | 0.00 | 0.00 | 40 | 1012.6 |
| 20260906203032 | 99 | 179 | 2.6 | 4.3 | 0.00 | 0.00 | 0.00 | 42 | 1012.6 |
| 20260906202503 | 98 | 129 | 1.7 | 4.3 | 0.00 | 0.00 | 0.00 | 42 | 1012.7 |
| 20260906202004 | 97 | 136 | 1.7 | 3.5 | 0.00 | 0.00 | 0.00 | 44 | 1012.8 |
| 20260906201510 | 96 | 117 | 0.9 | 5.2 | 0.00 | 0.00 | 0.00 | 44 | 1012.9 |
| 20260906201004 | 96 | 139 | 2.6 | 7.8 | 0.00 | 0.00 | 0.00 | 43 | 1013.0 |
| 20260906200507 | 96 | 93 | 2.6 | 7.8 | 0.00 | 0.00 | 0.00 | 44 | 1012.9 |
| 20260906200025 | 96 | 155 | 2.6 | 6.1 | 0.00 | 0.00 | 0.00 | 44 | 1013.1 |
| 20260906195508 | 96 | 30 | 0.9 | 7.8 | 0.00 | 0.00 | 0.00 | 44 | 1013.1 |
| 20260906195008 | 97 | 137 | 1.7 | 7.8 | 0.00 | 0.00 | 0.00 | 44 | 1013.2 |
| 20260906194519 | 96 | 57 | 2.6 | 7.0 | 0.00 | 0.00 | 0.00 | 45 | 1013.3 |
| 20260906194012 | 96 | 58 | 2.6 | 12.2 | 0.00 | 0.00 | 0.00 | 44 | 1013.2 |
| 20260906193513 | 97 | 145 | 3.5 | 12.2 | 0.00 | 0.00 | 0.00 | 44 | 1013.3 |
| 20260906193025 | 96 | 128 | 3.5 | 7.0 | 0.00 | 0.00 | 0.00 | 45 | 1013.3 |
| 20260906192514 | 96 | 34 | 1.7 | 9.6 | 0.00 | 0.00 | 0.00 | 44 | 1013.4 |
| 20260906192016 | 97 | 25 | 2.6 | 9.6 | 0.00 | 0.00 | 0.00 | 44 | 1013.4 |
| 20260906191509 | 97 | 144 | 3.5 | 9.6 | 0.00 | 0.00 | 0.00 | 45 | 1013.5 |
| 20260906191003 | 96 | 207 | 2.6 | 6.1 | 0.00 | 0.00 | 0.00 | 45 | 1013.6 |
| 20260906190506 | 96 | 27 | 0.9 | 6.1 | 0.00 | 0.00 | 0.00 | 46 | 1013.7 |
| 20260906190015 | 96 | 137 | 2.6 | 8.7 | 0.00 | 0.00 | 0.00 | 47 | 1013.7 |
| 20260906185507 | 96 | 30 | 0.9 | 8.7 | 0.00 | 0.00 | 0.00 | 45 | 1013.7 |
| 20260906185007 | 96 | 42 | 3.5 | 7.0 | 0.00 | 0.00 | 0.00 | 46 | 1013.8 |
| 20260906184520 | 96 | 128 | 1.7 | 7.8 | 0.00 | 0.00 | 0.00 | 46 | 1013.9 |
| 20260906184010 | 96 | 186 | 3.5 | 7.8 | 0.00 | 0.00 | 0.00 | 47 | 1013.9 |
| 20260906183513 | 96 | 148 | 1.7 | 7.8 | 0.00 | 0.00 | 0.00 | 47 | 1014.0 |
| 20260906183027 | 95 | 148 | 0.9 | 7.8 | 0.00 | 0.00 | 0.00 | 50 | 1013.9 |
| 20260906182516 | 95 | 117 | 0.9 | 6.1 | 0.00 | 0.00 | 0.00 | 49 | 1014.0 |
| 20260906182014 | 95 | 214 | 0.9 | 6.1 | 0.00 | 0.00 | 0.00 | 48 | 1014.1 |
| 20260906181545 | 95 | 46 | 1.7 | 6.1 | 0.00 | 0.00 | 0.00 | 48 | 1014.2 |
| 20260906181016 | 95 | 168 | 2.6 | 9.6 | 0.00 | 0.00 | 0.00 | 49 | 1014.3 |
| 20260906180504 | 95 | 138 | 0.9 | 9.6 | 0.00 | 0.00 | 0.00 | 48 | 1014.3 |
| 20260906180019 | 95 | 162 | 4.3 | 7.8 | 0.00 | 0.00 | 0.00 | 49 | 1014.3 |
| 20260906175504 | 95 | 242 | 1.7 | 7.0 | 0.00 | 0.00 | 0.00 | 48 | 1014.4 |
| 20260906175010 | 95 | 149 | 1.7 | 7.0 | 0.00 | 0.00 | 0.00 | 48 | 1014.5 |
| 20260906174515 | 95 | 159 | 0.9 | 7.0 | 0.00 | 0.00 | 0.00 | 48 | 1014.5 |
| 20260906174007 | 95 | 132 | 1.7 | 7.0 | 0.00 | 0.00 | 0.00 | 51 | 1014.6 |
| 20260906173510 | 95 | 90 | 1.7 | 5.2 | 0.00 | 0.00 | 0.00 | 48 | 1014.7 |
| 20260906173034 | 95 | 158 | 0.9 | 5.2 | 0.00 | 0.00 | 0.00 | 49 | 1014.8 |
| 20260906172513 | 94 | 124 | 1.7 | 6.1 | 0.00 | 0.00 | 0.00 | 49 | 1014.9 |
| 20260906172014 | 94 | 348 | 1.7 | 6.1 | 0.00 | 0.00 | 0.00 | 49 | 1015.0 |
| 20260906171528 | 94 | 105 | 0.9 | 5.2 | 0.00 | 0.00 | 0.00 | 50 | 1015.1 |
| 20260906171015 | 94 | 20 | 0.9 | 5.2 | 0.00 | 0.00 | 0.00 | 50 | 1015.0 |
| 20260906170521 | 94 | 216 | 0.9 | 5.2 | 0.00 | 0.00 | 0.00 | 51 | 1015.1 |
| 20260906170032 | 94 | 113 | 1.7 | 5.2 | 0.00 | 0.00 | 0.00 | 50 | 1015.0 |
| 20260906165504 | 93 | 140 | 1.7 | 5.2 | 0.00 | 0.00 | 0.00 | 50 | 1015.1 |
| 20260906165003 | 93 | 132 | 0.9 | 7.0 | 0.00 | 0.00 | 0.00 | 50 | 1015.2 |
| 20260906164513 | 93 | 126 | 1.7 | 7.0 | 0.00 | 0.00 | 0.00 | 52 | 1015.1 |
| 20260906164006 | 93 | 94 | 0.9 | 6.1 | 0.00 | 0.00 | 0.00 | 54 | 1015.2 |
| 20260906163507 | 93 | 119 | 1.7 | 6.1 | 0.00 | 0.00 | 0.00 | 54 | 1015.2 |
| 20260906163018 | 92 | 56 | 1.7 | 5.2 | 0.00 | 0.00 | 0.00 | 55 | 1015.2 |
| 20260906162510 | 92 | 77 | 0.0 | 7.8 | 0.00 | 0.00 | 0.00 | 55 | 1015.2 |
| 20260906162010 | 92 | 103 | 1.7 | 7.8 | 0.00 | 0.00 | 0.00 | 56 | 1015.2 |
| 20260906161524 | 92 | 68 | 2.6 | 5.2 | 0.00 | 0.00 | 0.00 | 55 | 1015.1 |
| 20260906161013 | 92 | 117 | 1.7 | 4.3 | 0.00 | 0.00 | 0.00 | 56 | 1015.1 |
| 20260906160514 | 91 | 134 | 1.7 | 6.1 | 0.00 | 0.00 | 0.00 | 56 | 1015.1 |
| 20260906160030 | 91 | 5 | 0.0 | 6.1 | 0.00 | 0.00 | 0.00 | 58 | 1015.1 |
| 20260906155515 | 91 | 88 | 0.9 | 7.0 | 0.00 | 0.00 | 0.00 | 59 | 1015.1 |
| 20260906155014 | 91 | 92 | 2.6 | 7.0 | 0.00 | 0.00 | 0.00 | 60 | 1015.1 |
| 20260906154541 | 90 | 74 | 0.9 | 6.1 | 0.00 | 0.00 | 0.00 | 61 | 1015.1 |
| 20260906154006 | 90 | 89 | 2.6 | 6.1 | 0.00 | 0.00 | 0.00 | 61 | 1015.1 |
| 20260906153506 | 90 | 125 | 0.9 | 5.2 | 0.00 | 0.00 | 0.00 | 61 | 1015.1 |
| 20260906153021 | 90 | 105 | 1.7 | 4.3 | 0.00 | 0.00 | 0.00 | 62 | 1015.0 |
| 20260906152507 | 90 | 79 | 1.7 | 4.3 | 0.00 | 0.00 | 0.00 | 63 | 1015.0 |
| 20260906152007 | 89 | 148 | 0.9 | 4.3 | 0.00 | 0.00 | 0.00 | 65 | 1014.9 |
| 20260906151520 | 88 | 24 | 0.9 | 4.3 | 0.00 | 0.00 | 0.00 | 65 | 1014.8 |
| 20260906151017 | 88 | 50 | 0.9 | 3.5 | 0.00 | 0.00 | 0.00 | 66 | 1014.8 |
| 20260906150513 | 88 | 40 | 0.9 | 5.2 | 0.00 | 0.00 | 0.00 | 66 | 1014.8 |
| 20260906150031 | 88 | 37 | 1.7 | 5.2 | 0.00 | 0.00 | 0.00 | 67 | 1014.8 |
| 20260906145514 | 88 | 103 | 0.9 | 3.5 | 0.00 | 0.00 | 0.00 | 67 | 1014.8 |
| 20260906145019 | 87 | 103 | 0.9 | 2.6 | 0.00 | 0.00 | 0.00 | 68 | 1014.8 |
| 20260906144529 | 87 | 88 | 1.7 | 2.6 | 0.00 | 0.00 | 0.00 | 69 | 1014.8 |
| 20260906144013 | 87 | 112 | 1.7 | 2.6 | 0.00 | 0.00 | 0.00 | 68 | 1014.8 |
| 20260906143514 | 87 | 110 | 0.9 | 2.6 | 0.00 | 0.00 | 0.00 | 69 | 1014.9 |
| 20260906143019 | 87 | 118 | 0.9 | 2.6 | 0.00 | 0.00 | 0.00 | 70 | 1014.9 |
| 20260906142508 | 87 | 79 | 1.7 | 2.6 | 0.00 | 0.00 | 0.00 | 70 | 1014.9 |
| 20260906142008 | 86 | 122 | 0.0 | 2.6 | 0.00 | 0.00 | 0.00 | 70 | 1014.9 |
| 20260906141524 | 86 | 102 | 0.0 | 2.6 | 0.00 | 0.00 | 0.00 | 71 | 1014.9 |
| 20260906141011 | 85 | 92 | 0.0 | 2.6 | 0.00 | 0.00 | 0.00 | 72 | 1014.9 |
| 20260906140512 | 85 | 53 | 0.9 | 2.6 | 0.00 | 0.00 | 0.00 | 72 | 1014.8 |
| 20260906140027 | 84 | 110 | 0.9 | 1.7 | 0.00 | 0.00 | 0.00 | 74 | 1014.7 |
| 20260906135514 | 84 | 67 | 0.9 | 1.7 | 0.00 | 0.00 | 0.00 | 75 | 1014.7 |
| 20260906135011 | 84 | 34 | 0.9 | 1.7 | 0.00 | 0.00 | 0.00 | 75 | 1014.7 |
| 20260906134531 | 83 | 49 | 0.0 | 2.6 | 0.00 | 0.00 | 0.00 | 76 | 1014.7 |
| 20260906134018 | 83 | 38 | 0.9 | 2.6 | 0.00 | 0.00 | 0.00 | 76 | 1014.7 |
| 20260906133514 | 83 | 122 | 0.9 | 1.7 | 0.00 | 0.00 | 0.00 | 77 | 1014.7 |
| 20260906133034 | 82 | 86 | 0.9 | 1.7 | 0.00 | 0.00 | 0.00 | 78 | 1014.7 |
| 20260906132518 | 82 | 126 | 0.9 | 1.7 | 0.00 | 0.00 | 0.00 | 79 | 1014.7 |
| 20260906132007 | 81 | 24 | 0.9 | 1.7 | 0.00 | 0.00 | 0.00 | 80 | 1014.7 |
| 20260906131517 | 80 | 331 | 0.0 | 1.7 | 0.00 | 0.00 | 0.00 | 81 | 1014.8 |
| 20260906131009 | 80 | 253 | 0.0 | 1.7 | 0.00 | 0.00 | 0.00 | 82 | 1014.7 |
| 20260906130511 | 79 | 253 | 0.0 | 1.7 | 0.00 | 0.00 | 0.00 | 83 | 1014.8 |
| 20260906130024 | 78 | 253 | 0.0 | 1.7 | 0.00 | 0.00 | 0.00 | 84 | 1014.7 |
| 20260906125512 | 78 | 253 | 0.0 | 1.7 | 0.00 | 0.00 | 0.00 | 85 | 1014.6 |
| 20260906125013 | 77 | 253 | 0.0 | 1.7 | 0.00 | 0.00 | 0.00 | 86 | 1014.6 |
| 20260906124529 | 77 | 253 | 0.0 | 1.7 | 0.00 | 0.00 | 0.00 | 86 | 1014.5 |
| 20260906124014 | 77 | 253 | 0.0 | 1.7 | 0.00 | 0.00 | 0.00 | 86 | 1014.5 |
| 20260906123515 | 77 | 253 | 0.0 | 1.7 | 0.00 | 0.00 | 0.00 | 86 | 1014.4 |
| 20260906123033 | 77 | 253 | 0.0 | 0.0 | 0.00 | 0.00 | 0.00 | 86 | 1014.3 |
| 20260906122518 | 77 | 253 | 0.0 | 1.7 | 0.00 | 0.00 | 0.00 | 86 | 1014.3 |
| 20260906122016 | 77 | 253 | 0.0 | 1.7 | 0.00 | 0.00 | 0.00 | 86 | 1014.3 |
| 20260906121532 | 77 | 253 | 0.0 | 1.7 | 0.00 | 0.00 | 0.00 | 86 | 1014.3 |
| 20260906121007 | 77 | 253 | 0.0 | 0.0 | 0.00 | 0.00 | 0.00 | 86 | 1014.2 |
| 20260906120507 | 77 | 253 | 0.0 | 0.0 | 0.00 | 0.00 | 0.00 | 85 | 1014.1 |
| 20260906120022 | 77 | 253 | 0.0 | 0.0 | 0.00 | 0.00 | 0.00 | 85 | 1014.0 |
| 20260906115513 | 77 | 253 | 0.0 | 0.0 | 0.00 | 0.00 | 0.00 | 85 | 1014.1 |
| 20260906115011 | 77 | 253 | 0.0 | 0.0 | 0.00 | 0.00 | 0.00 | 85 | 1014.1 |
| 20260906114542 | 77 | 253 | 0.0 | 0.0 | 0.00 | 0.00 | 0.00 | 85 | 1014.0 |
| 20260906114013 | 77 | 253 | 0.0 | 0.0 | 0.00 | 0.00 | 0.00 | 85 | 1013.9 |
| 20260906113513 | 77 | 253 | 0.0 | 1.7 | 0.00 | 0.00 | 0.00 | 85 | 1013.9 |
| 20260906113032 | 77 | 253 | 0.0 | 1.7 | 0.00 | 0.00 | 0.00 | 85 | 1013.9 |
| 20260906112513 | 77 | 253 | 0.0 | 1.7 | 0.00 | 0.00 | 0.00 | 85 | 1013.8 |
| 20260906112020 | 77 | 253 | 0.0 | 1.7 | 0.00 | 0.00 | 0.00 | 85 | 1013.8 |
| 20260906111535 | 77 | 253 | 0.0 | 1.7 | 0.00 | 0.00 | 0.00 | 84 | 1013.8 |
| 20260906111017 | 77 | 253 | 0.0 | 1.7 | 0.00 | 0.00 | 0.00 | 85 | 1013.9 |
| 20260906110515 | 77 | 253 | 0.0 | 1.7 | 0.00 | 0.00 | 0.00 | 85 | 1013.8 |
| 20260906110036 | 77 | 253 | 0.0 | 1.7 | 0.00 | 0.00 | 0.00 | 85 | 1013.7 |
| 20260906105511 | 77 | 253 | 0.0 | 1.7 | 0.00 | 0.00 | 0.00 | 84 | 1013.7 |
| 20260906105012 | 77 | 253 | 0.0 | 1.7 | 0.00 | 0.00 | 0.00 | 84 | 1013.5 |
| 20260906104534 | 77 | 253 | 0.0 | 1.7 | 0.00 | 0.00 | 0.00 | 84 | 1013.5 |
| 20260906104003 | 77 | 253 | 0.0 | 1.7 | 0.00 | 0.00 | 0.00 | 84 | 1013.6 |
| 20260906103502 | 77 | 253 | 0.0 | 1.7 | 0.00 | 0.00 | 0.00 | 84 | 1013.6 |
| 20260906103008 | 77 | 253 | 0.0 | 0.0 | 0.00 | 0.00 | 0.00 | 84 | 1013.6 |
| 20260906102505 | 78 | 253 | 0.0 | 0.0 | 0.00 | 0.00 | 0.00 | 83 | 1013.6 |
| 20260906102002 | 78 | 253 | 0.0 | 0.0 | 0.00 | 0.00 | 0.00 | 83 | 1013.5 |
| 20260906101513 | 78 | 253 | 0.0 | 0.0 | 0.00 | 0.00 | 0.00 | 83 | 1013.5 |
| 20260906101005 | 78 | 253 | 0.0 | 0.0 | 0.00 | 0.00 | 0.00 | 83 | 1013.4 |
| 20260906100508 | 78 | 253 | 0.0 | 0.0 | 0.00 | 0.00 | 0.00 | 83 | 1013.4 |
| 20260906100018 | 78 | 253 | 0.0 | 0.0 | 0.00 | 0.00 | 0.00 | 82 | 1013.4 |
| 20260906095508 | 78 | 253 | 0.0 | 0.0 | 0.00 | 0.00 | 0.00 | 81 | 1013.4 |
| 20260906095008 | 79 | 253 | 0.0 | 0.0 | 0.00 | 0.00 | 0.00 | 81 | 1013.4 |
| 20260906094550 | 79 | 253 | 0.0 | 0.0 | 0.00 | 0.00 | 0.00 | 81 | 1013.3 |
| 20260906094009 | 79 | 253 | 0.0 | 0.0 | 0.00 | 0.00 | 0.00 | 80 | 1013.2 |
| 20260906093512 | 79 | 253 | 0.0 | 0.0 | 0.00 | 0.00 | 0.00 | 79 | 1013.1 |
| 20260906093011 | 79 | 253 | 0.0 | 0.0 | 0.00 | 0.00 | 0.00 | 79 | 1013.1 |
| 20260906092504 | 80 | 253 | 0.0 | 0.9 | 0.00 | 0.00 | 0.00 | 79 | 1013.0 |
| 20260906092004 | 80 | 253 | 0.0 | 0.9 | 0.00 | 0.00 | 0.00 | 79 | 1013.0 |
| 20260906091510 | 80 | 253 | 0.0 | 1.7 | 0.00 | 0.00 | 0.00 | 78 | 1013.0 |
| 20260906091004 | 80 | 253 | 0.0 | 1.7 | 0.00 | 0.00 | 0.00 | 78 | 1012.9 |
| 20260906090507 | 80 | 253 | 0.0 | 1.7 | 0.00 | 0.00 | 0.00 | 78 | 1012.9 |
| 20260906090024 | 80 | 205 | 0.0 | 1.7 | 0.00 | 0.00 | 0.00 | 78 | 1012.9 |
| 20260906085506 | 80 | 210 | 0.0 | 2.6 | 0.00 | 0.00 | 0.00 | 78 | 1012.9 |
| 20260906085006 | 80 | 211 | 0.0 | 2.6 | 0.00 | 0.00 | 0.00 | 78 | 1012.9 |
| 20260906084524 | 80 | 215 | 0.0 | 2.6 | 0.00 | 0.00 | 0.00 | 77 | 1012.9 |
| 20260906084011 | 80 | 228 | 0.0 | 2.6 | 0.00 | 0.00 | 0.00 | 77 | 1012.8 |
| 20260906083512 | 81 | 204 | 0.0 | 2.6 | 0.00 | 0.00 | 0.00 | 77 | 1012.8 |
| 20260906083042 | 81 | 94 | 0.9 | 2.6 | 0.00 | 0.00 | 0.00 | 77 | 1012.8 |
| 20260906082512 | 81 | 175 | 0.0 | 1.7 | 0.00 | 0.00 | 0.00 | 76 | 1012.8 |
| 20260906082004 | 81 | 113 | 0.0 | 1.7 | 0.00 | 0.00 | 0.00 | 76 | 1012.9 |
| 20260906081511 | 81 | 173 | 0.0 | 1.7 | 0.00 | 0.00 | 0.00 | 76 | 1012.8 |
| 20260906081003 | 81 | 190 | 0.0 | 1.7 | 0.00 | 0.00 | 0.00 | 76 | 1012.8 |
| 20260906080505 | 81 | 222 | 0.0 | 1.7 | 0.00 | 0.00 | 0.00 | 75 | 1012.8 |
| 20260906080013 | 81 | 202 | 0.0 | 1.7 | 0.00 | 0.00 | 0.00 | 75 | 1012.9 |
| 20260906075507 | 81 | 205 | 0.0 | 1.7 | 0.00 | 0.00 | 0.00 | 75 | 1013.0 |
| 20260906075007 | 81 | 186 | 0.0 | 1.7 | 0.00 | 0.00 | 0.00 | 74 | 1013.0 |
| 20260906074526 | 82 | 173 | 0.0 | 1.7 | 0.00 | 0.00 | 0.00 | 74 | 1013.1 |
| 20260906074012 | 82 | 200 | 0.0 | 1.7 | 0.00 | 0.00 | 0.00 | 73 | 1012.9 |
| 20260906073508 | 82 | 200 | 0.0 | 3.5 | 0.00 | 0.00 | 0.00 | 73 | 1013.0 |
| 20260906073027 | 82 | 202 | 0.0 | 3.5 | 0.00 | 0.00 | 0.00 | 73 | 1012.9 |
| 20260906072512 | 82 | 206 | 0.0 | 1.7 | 0.00 | 0.00 | 0.00 | 73 | 1012.9 |
| 20260906072015 | 82 | 221 | 0.9 | 1.7 | 0.00 | 0.00 | 0.00 | 73 | 1012.8 |
| 20260906071529 | 82 | 231 | 0.0 | 1.7 | 0.00 | 0.00 | 0.00 | 72 | 1012.9 |
| 20260906071004 | 82 | 242 | 0.0 | 1.7 | 0.00 | 0.00 | 0.00 | 72 | 1013.0 |
| 20260906070503 | 82 | 244 | 0.0 | 1.7 | 0.00 | 0.00 | 0.00 | 72 | 1013.1 |
| 20260906070010 | 82 | 201 | 0.9 | 2.6 | 0.00 | 0.00 | 0.00 | 72 | 1013.2 |
| 20260906065505 | 83 | 180 | 0.0 | 2.6 | 0.00 | 0.00 | 0.00 | 71 | 1013.2 |
| 20260906065008 | 83 | 244 | 0.9 | 2.6 | 0.00 | 0.00 | 0.00 | 71 | 1013.2 |
| 20260906064516 | 83 | 186 | 0.9 | 2.6 | 0.00 | 0.00 | 0.00 | 70 | 1013.2 |
| 20260906064008 | 83 | 189 | 0.9 | 1.7 | 0.00 | 0.00 | 0.00 | 70 | 1013.3 |
| 20260906063509 | 83 | 201 | 0.0 | 2.6 | 0.00 | 0.00 | 0.00 | 69 | 1013.3 |
| 20260906063024 | 83 | 238 | 0.9 | 3.5 | 0.00 | 0.00 | 0.00 | 69 | 1013.2 |
| 20260906062514 | 83 | 167 | 0.9 | 3.5 | 0.00 | 0.00 | 0.00 | 69 | 1013.2 |
| 20260906062011 | 83 | 213 | 0.9 | 5.2 | 0.00 | 0.00 | 0.00 | 68 | 1013.2 |
| 20260906061532 | 83 | 161 | 0.9 | 5.2 | 0.00 | 0.00 | 0.00 | 68 | 1013.2 |
| 20260906061015 | 83 | 182 | 0.0 | 1.7 | 0.00 | 0.00 | 0.00 | 67 | 1013.3 |
| 20260906060519 | 83 | 217 | 0.0 | 1.7 | 0.00 | 0.00 | 0.00 | 67 | 1013.3 |
| 20260906060031 | 84 | 220 | 0.9 | 1.7 | 0.00 | 0.00 | 0.00 | 66 | 1013.3 |
| 20260906055504 | 84 | 178 | 0.9 | 1.7 | 0.00 | 0.00 | 0.00 | 66 | 1013.2 |
| 20260906055004 | 84 | 227 | 0.9 | 1.7 | 0.00 | 0.00 | 0.00 | 66 | 1013.1 |
| 20260906054515 | 84 | 190 | 0.0 | 1.7 | 0.00 | 0.00 | 0.00 | 65 | 1013.2 |
| 20260906054007 | 84 | 225 | 0.0 | 2.6 | 0.00 | 0.00 | 0.00 | 65 | 1013.3 |
| 20260906053508 | 84 | 146 | 0.0 | 2.6 | 0.00 | 0.00 | 0.00 | 64 | 1013.3 |
| 20260906053023 | 84 | 252 | 0.9 | 3.5 | 0.00 | 0.00 | 0.00 | 64 | 1013.2 |
| 20260906052512 | 84 | 202 | 0.9 | 3.5 | 0.00 | 0.00 | 0.00 | 64 | 1013.2 |
| 20260906052011 | 85 | 235 | 0.9 | 2.6 | 0.00 | 0.00 | 0.00 | 64 | 1013.1 |
| 20260906051526 | 85 | 238 | 0.9 | 2.6 | 0.00 | 0.00 | 0.00 | 63 | 1013.0 |
| 20260906051014 | 85 | 240 | 1.7 | 3.5 | 0.00 | 0.00 | 0.00 | 63 | 1013.1 |
| 20260906050515 | 85 | 200 | 0.9 | 4.3 | 0.00 | 0.00 | 0.00 | 63 | 1013.2 |
| 20260906050034 | 85 | 247 | 1.7 | 4.3 | 0.00 | 0.00 | 0.00 | 63 | 1013.2 |
| 20260906045518 | 85 | 232 | 0.9 | 4.3 | 0.00 | 0.00 | 0.00 | 64 | 1013.1 |
| 20260906045015 | 85 | 210 | 0.0 | 5.2 | 0.00 | 0.00 | 0.00 | 63 | 1013.2 |
| 20260906044512 | 85 | 164 | 0.9 | 6.1 | 0.00 | 0.00 | 0.00 | 63 | 1013.2 |
| 20260906044003 | 85 | 242 | 1.7 | 6.1 | 0.00 | 0.00 | 0.00 | 63 | 1013.2 |
| 20260906043506 | 85 | 32 | 0.9 | 4.3 | 0.00 | 0.00 | 0.00 | 64 | 1013.3 |
| 20260906043020 | 85 | 190 | 0.9 | 2.6 | 0.00 | 0.00 | 0.00 | 64 | 1013.2 |
| 20260906042510 | 85 | 210 | 0.9 | 2.6 | 0.00 | 0.00 | 0.00 | 64 | 1013.3 |
| 20260906042009 | 85 | 264 | 0.0 | 4.3 | 0.00 | 0.00 | 0.00 | 63 | 1013.2 |
| 20260906041531 | 85 | 190 | 0.9 | 4.3 | 0.00 | 0.00 | 0.00 | 63 | 1013.3 |
| 20260906041012 | 86 | 189 | 0.0 | 3.5 | 0.00 | 0.00 | 0.00 | 63 | 1013.2 |
| 20260906040514 | 86 | 150 | 0.0 | 3.5 | 0.00 | 0.00 | 0.00 | 63 | 1013.2 |
| 20260906040034 | 86 | 226 | 0.0 | 3.5 | 0.00 | 0.00 | 0.00 | 63 | 1013.2 |
| 20260906035511 | 86 | 244 | 0.0 | 2.6 | 0.00 | 0.00 | 0.00 | 63 | 1013.2 |
| 20260906035018 | 86 | 143 | 0.9 | 3.5 | 0.00 | 0.00 | 0.00 | 63 | 1013.3 |
| 20260906034532 | 86 | 118 | 0.9 | 5.2 | 0.00 | 0.00 | 0.00 | 63 | 1013.2 |
| 20260906034015 | 86 | 186 | 0.9 | 5.2 | 0.00 | 0.00 | 0.00 | 63 | 1013.2 |
| 20260906033506 | 86 | 157 | 0.9 | 1.7 | 0.00 | 0.00 | 0.00 | 63 | 1013.2 |
| 20260906033014 | 86 | 191 | 0.0 | 3.5 | 0.00 | 0.00 | 0.00 | 62 | 1013.2 |
| 20260906032507 | 86 | 196 | 0.9 | 6.1 | 0.00 | 0.00 | 0.00 | 62 | 1013.3 |
| 20260906032007 | 86 | 153 | 0.9 | 6.1 | 0.00 | 0.00 | 0.00 | 62 | 1013.2 |
| 20260906031534 | 87 | 258 | 0.9 | 3.5 | 0.00 | 0.00 | 0.00 | 61 | 1013.4 |
| 20260906031011 | 87 | 150 | 1.7 | 4.3 | 0.00 | 0.00 | 0.00 | 61 | 1013.3 |
| 20260906030510 | 87 | 71 | 0.9 | 5.2 | 0.00 | 0.00 | 0.00 | 61 | 1013.2 |
| 20260906030028 | 87 | 170 | 0.9 | 6.1 | 0.00 | 0.00 | 0.00 | 60 | 1013.2 |
| 20260906025514 | 87 | 225 | 0.0 | 6.1 | 0.00 | 0.00 | 0.00 | 60 | 1013.3 |
| 20260906025017 | 87 | 188 | 0.9 | 5.2 | 0.00 | 0.00 | 0.00 | 60 | 1013.2 |
| 20260906024544 | 87 | 67 | 0.9 | 5.2 | 0.00 | 0.00 | 0.00 | 60 | 1013.1 |
| 20260906024014 | 87 | 183 | 0.9 | 3.5 | 0.00 | 0.00 | 0.00 | 59 | 1013.1 |
| 20260906023516 | 87 | 142 | 0.9 | 3.5 | 0.00 | 0.00 | 0.00 | 59 | 1013.0 |
| 20260906023032 | 87 | 98 | 0.9 | 3.5 | 0.00 | 0.00 | 0.00 | 59 | 1012.9 |
| 20260906022520 | 87 | 122 | 0.9 | 3.5 | 0.00 | 0.00 | 0.00 | 59 | 1012.9 |
| 20260906022006 | 87 | 111 | 0.9 | 4.3 | 0.00 | 0.00 | 0.00 | 59 | 1012.8 |
| 20260906021520 | 87 | 224 | 0.9 | 4.3 | 0.00 | 0.00 | 0.00 | 59 | 1012.7 |
| 20260906021008 | 87 | 212 | 1.7 | 4.3 | 0.00 | 0.00 | 0.00 | 58 | 1012.7 |
| 20260906020510 | 88 | 205 | 0.0 | 2.6 | 0.00 | 0.00 | 0.00 | 58 | 1012.5 |
| 20260906020027 | 88 | 246 | 0.9 | 2.6 | 0.00 | 0.00 | 0.00 | 58 | 1012.5 |
| 20260906015511 | 88 | 117 | 0.0 | 6.1 | 0.00 | 0.00 | 0.00 | 57 | 1012.4 |
| 20260906015015 | 88 | 53 | 0.9 | 6.1 | 0.00 | 0.00 | 0.00 | 57 | 1012.5 |
| 20260906014544 | 88 | 237 | 0.9 | 5.2 | 0.00 | 0.00 | 0.00 | 57 | 1012.4 |
| 20260906014012 | 89 | 155 | 0.9 | 6.1 | 0.00 | 0.00 | 0.00 | 56 | 1012.4 |
| 20260906013514 | 89 | 159 | 0.9 | 6.1 | 0.00 | 0.00 | 0.00 | 56 | 1012.3 |
| 20260906013042 | 89 | 107 | 0.9 | 6.1 | 0.00 | 0.00 | 0.00 | 55 | 1012.2 |
| 20260906012519 | 90 | 131 | 1.7 | 7.0 | 0.00 | 0.00 | 0.00 | 54 | 1012.2 |
| 20260906012018 | 91 | 127 | 1.7 | 7.0 | 0.00 | 0.00 | 0.00 | 53 | 1012.0 |
| 20260906011532 | 91 | 119 | 0.9 | 7.8 | 0.00 | 0.00 | 0.00 | 52 | 1012.0 |
| 20260906011007 | 92 | 189 | 1.7 | 7.8 | 0.00 | 0.00 | 0.00 | 51 | 1011.8 |
| 20260906010510 | 92 | 123 | 1.7 | 6.1 | 0.00 | 0.00 | 0.00 | 50 | 1011.7 |
| 20260906010027 | 93 | 132 | 1.7 | 6.1 | 0.00 | 0.00 | 0.00 | 50 | 1011.7 |
| 20260906005511 | 93 | 132 | 1.7 | 6.1 | 0.00 | 0.00 | 0.00 | 49 | 1011.7 |
| 20260906005011 | 94 | 128 | 1.7 | 7.0 | 0.00 | 0.00 | 0.00 | 48 | 1011.5 |
| 20260906004526 | 94 | 92 | 1.7 | 7.0 | 0.00 | 0.00 | 0.00 | 47 | 1011.5 |
| 20260906004013 | 95 | 125 | 1.7 | 3.5 | 0.00 | 0.00 | 0.00 | 45 | 1011.5 |
| 20260906003515 | 95 | 124 | 1.7 | 3.5 | 0.00 | 0.00 | 0.00 | 44 | 1011.4 |
| 20260906003031 | 95 | 122 | 0.0 | 7.0 | 0.00 | 0.00 | 0.00 | 44 | 1011.4 |
| 20260906002514 | 95 | 97 | 0.9 | 7.0 | 0.00 | 0.00 | 0.00 | 43 | 1011.4 |
| 20260906002016 | 95 | 61 | 0.9 | 3.5 | 0.00 | 0.00 | 0.00 | 43 | 1011.5 |
| 20260906001534 | 96 | 138 | 1.7 | 7.0 | 0.00 | 0.00 | 0.00 | 42 | 1011.4 |
| 20260906001016 | 96 | 111 | 0.9 | 7.0 | 0.00 | 0.00 | 0.00 | 42 | 1011.5 |
| 20260906000516 | 96 | 140 | 1.7 | 6.1 | 0.00 | 0.00 | 0.00 | 42 | 1011.4 |
| 20260906000018 | 96 | 131 | 0.0 | 3.5 | 0.00 | 0.00 | 0.00 | 42 | 1011.4 |
| 20260905235514 | 96 | 121 | 0.9 | 3.5 | 0.00 | 0.00 | 0.00 | 41 | 1011.3 |
| 20260905235012 | 97 | 115 | 0.9 | 3.5 | 0.00 | 0.00 | 0.00 | 40 | 1011.3 |
| 20260905234526 | 97 | 131 | 0.9 | 3.5 | 0.00 | 0.00 | 0.00 | 41 | 1011.2 |
| 20260905234010 | 98 | 145 | 1.7 | 7.8 | 0.00 | 0.00 | 0.00 | 41 | 1011.2 |
| 20260905233518 | 98 | 113 | 1.7 | 7.0 | 0.00 | 0.00 | 0.00 | 40 | 1011.2 |
| 20260905233028 | 98 | 121 | 0.9 | 7.0 | 0.00 | 0.00 | 0.00 | 40 | 1011.2 |
| 20260905232516 | 97 | 125 | 1.7 | 7.0 | 0.00 | 0.00 | 0.00 | 40 | 1011.2 |
| 20260905232014 | 98 | 141 | 1.7 | 7.0 | 0.00 | 0.00 | 0.00 | 40 | 1011.2 |
| 20260905231534 | 98 | 105 | 1.7 | 6.1 | 0.00 | 0.00 | 0.00 | 39 | 1011.3 |